Time,TemperatureF,DewpointF,PressureIn,WindDirection,WindDirectionDegrees,WindSpeedMPH,WindSpeedGustMPH,Humidity,HourlyPrecipIn,Conditions,Clouds,dailyrainin,SoftwareType,DateUTC
2013-02-15 00:10:00,36.9,30.0,28.88,NE,45,0.0,0.0,76,0.00,,---,0.00,VWS V14.00,2013-02-15 05:10:00,
2013-02-15 00:13:00,37.0,30.2,28.91,NE,45,0.0,0.0,76,0.00,,---,0.00,VWS V14.00,2013-02-15 05:13:00,
2013-02-15 00:16:00,36.9,30.0,28.91,NE,45,0.0,0.0,76,0.00,,---,0.00,VWS V14.00,2013-02-15 05:16:00,
2013-02-15 00:22:00,36.5,29.7,28.91,NNE,22,0.0,0.0,76,0.00,,---,0.00,VWS V14.00,2013-02-15 05:22:00,
2013-02-15 00:28:00,36.5,30.0,28.91,NNE,22,0.0,0.0,77,0.00,,---,0.00,VWS V14.00,2013-02-15 05:28:00,
2013-02-15 00:34:00,36.3,29.8,28.91,NNE,22,0.0,0.0,77,0.00,,---,0.00,VWS V14.00,2013-02-15 05:34:00,
2013-02-15 00:40:00,36.3,29.8,28.91,NNE,22,0.0,0.0,77,0.00,,---,0.00,VWS V14.00,2013-02-15 05:40:00,
2013-02-15 00:46:00,36.1,29.6,28.91,NNE,22,0.0,0.0,77,0.00,,---,0.00,VWS V14.00,2013-02-15 05:46:00,
2013-02-15 00:52:00,36.1,29.6,28.91,NNW,338,0.0,1.6,77,0.00,,---,0.00,VWS V14.00,2013-02-15 05:52:00,
2013-02-15 00:58:00,36.0,29.5,28.91,NNW,338,0.0,1.6,77,0.00,,---,0.00,VWS V14.00,2013-02-15 05:58:00,
2013-02-15 01:04:00,36.0,29.5,28.91,NNW,338,0.0,0.0,77,0.00,,---,0.00,VWS V14.00,2013-02-15 06:04:00,
2013-02-15 01:10:00,35.8,29.3,28.91,NNW,338,0.0,0.0,77,0.00,,---,0.00,VWS V14.00,2013-02-15 06:10:00,
2013-02-15 01:16:00,35.8,29.3,28.91,NNW,338,0.0,0.0,77,0.00,,---,0.00,VWS V14.00,2013-02-15 06:16:00,
2013-02-15 01:22:00,35.6,29.1,28.91,NNW,338,0.0,0.0,77,0.00,,---,0.00,VWS V14.00,2013-02-15 06:22:00,
2013-02-15 01:28:00,35.4,28.9,28.91,NNW,338,0.0,0.0,77,0.00,,---,0.00,VWS V14.00,2013-02-15 06:28:00,
2013-02-15 01:34:00,35.6,29.1,28.91,NNW,338,0.0,0.0,77,0.00,,---,0.00,VWS V14.00,2013-02-15 06:34:00,
2013-02-15 01:40:00,35.4,28.9,28.91,NNW,338,0.0,0.0,77,0.00,,---,0.00,VWS V14.00,2013-02-15 06:40:00,
2013-02-15 01:46:00,35.2,28.8,28.91,NNW,338,0.0,0.0,77,0.00,,---,0.00,VWS V14.00,2013-02-15 06:46:00,
2013-02-15 01:52:00,35.1,28.6,28.91,NNW,338,0.0,0.0,77,0.00,,---,0.00,VWS V14.00,2013-02-15 06:52:00,
2013-02-15 01:58:00,35.1,28.6,28.91,NNW,338,0.0,0.0,77,0.00,,---,0.00,VWS V14.00,2013-02-15 06:58:00,
2013-02-15 02:04:00,34.9,28.7,28.91,NNW,338,0.0,0.0,78,0.00,,---,0.00,VWS V14.00,2013-02-15 07:04:00,
2013-02-15 02:10:00,34.9,28.7,28.91,NNW,338,0.0,0.0,78,0.00,,---,0.00,VWS V14.00,2013-02-15 07:10:00,
2013-02-15 02:16:00,35.1,28.9,28.91,NNW,338,0.0,0.0,78,0.00,,---,0.00,VWS V14.00,2013-02-15 07:16:00,
2013-02-15 02:22:00,34.9,28.7,28.91,NE,45,0.0,0.0,78,0.00,,---,0.00,VWS V14.00,2013-02-15 07:22:00,
2013-02-15 02:28:00,34.7,28.2,28.88,NNE,22,0.0,0.0,77,0.00,,---,0.00,VWS V14.00,2013-02-15 07:28:00,
2013-02-15 02:34:00,34.5,28.4,28.88,NNE,22,0.0,0.0,78,0.00,,---,0.00,VWS V14.00,2013-02-15 07:34:00,
2013-02-15 02:40:00,34.7,28.5,28.88,North,0,0.0,0.0,78,0.00,,---,0.00,VWS V14.00,2013-02-15 07:40:00,
2013-02-15 02:46:00,34.5,28.1,28.88,North,0,0.0,0.0,77,0.00,,---,0.00,VWS V14.00,2013-02-15 07:46:00,
2013-02-15 02:53:00,34.5,28.4,28.88,North,0,0.0,0.0,78,0.00,,---,0.00,VWS V14.00,2013-02-15 07:53:00,
2013-02-15 02:59:00,34.5,28.1,28.88,North,0,0.0,0.0,77,0.00,,---,0.00,VWS V14.00,2013-02-15 07:59:00,
2013-02-15 03:05:00,34.5,28.4,28.88,NNE,22,0.0,0.0,78,0.00,,---,0.00,VWS V14.00,2013-02-15 08:05:00,
2013-02-15 03:11:00,34.5,28.4,28.88,NNE,22,0.0,0.0,78,0.00,,---,0.00,VWS V14.00,2013-02-15 08:11:00,
2013-02-15 03:17:00,34.3,28.2,28.88,NNE,22,0.0,0.0,78,0.00,,---,0.00,VWS V14.00,2013-02-15 08:17:00,
2013-02-15 03:23:00,34.3,27.9,28.88,North,0,0.0,0.0,77,0.00,,---,0.00,VWS V14.00,2013-02-15 08:23:00,
2013-02-15 03:29:00,34.3,27.9,28.88,North,0,0.0,0.0,77,0.00,,---,0.00,VWS V14.00,2013-02-15 08:29:00,
2013-02-15 03:35:00,34.2,28.0,28.88,North,0,0.0,0.0,78,0.00,,---,0.00,VWS V14.00,2013-02-15 08:35:00,
2013-02-15 03:41:00,34.2,28.0,28.88,North,0,0.0,0.0,78,0.00,,---,0.00,VWS V14.00,2013-02-15 08:41:00,
2013-02-15 03:47:00,34.2,28.0,28.88,North,0,0.0,0.0,78,0.00,,---,0.00,VWS V14.00,2013-02-15 08:47:00,
2013-02-15 03:53:00,34.0,27.9,28.88,North,0,0.0,0.0,78,0.00,,---,0.00,VWS V14.00,2013-02-15 08:53:00,
2013-02-15 03:59:00,34.0,27.9,28.88,North,0,0.0,0.0,78,0.00,,---,0.00,VWS V14.00,2013-02-15 08:59:00,
2013-02-15 04:05:00,34.0,27.9,28.88,North,0,0.0,0.0,78,0.00,,---,0.00,VWS V14.00,2013-02-15 09:05:00,
2013-02-15 04:11:00,33.8,27.7,28.91,North,0,0.0,0.0,78,0.00,,---,0.00,VWS V14.00,2013-02-15 09:11:00,
2013-02-15 04:17:00,33.8,27.7,28.91,North,0,0.0,0.0,78,0.00,,---,0.00,VWS V14.00,2013-02-15 09:17:00,
2013-02-15 04:23:00,34.0,27.9,28.91,North,0,0.0,0.0,78,0.00,,---,0.00,VWS V14.00,2013-02-15 09:23:00,
2013-02-15 04:29:00,33.8,27.7,28.88,North,0,0.0,0.0,78,0.00,,---,0.00,VWS V14.00,2013-02-15 09:29:00,
2013-02-15 04:35:00,33.8,27.7,28.88,North,0,0.0,0.0,78,0.00,,---,0.00,VWS V14.00,2013-02-15 09:35:00,
2013-02-15 04:41:00,33.6,27.5,28.88,North,0,0.0,0.0,78,0.00,,---,0.00,VWS V14.00,2013-02-15 09:41:00,
2013-02-15 04:47:00,33.8,27.7,28.88,North,0,0.0,0.0,78,0.00,,---,0.00,VWS V14.00,2013-02-15 09:47:00,
2013-02-15 04:53:00,33.8,27.7,28.88,North,0,0.0,0.0,78,0.00,,---,0.00,VWS V14.00,2013-02-15 09:53:00,
2013-02-15 04:59:00,33.8,27.7,28.91,North,0,0.0,0.0,78,0.00,,---,0.00,VWS V14.00,2013-02-15 09:59:00,
2013-02-15 05:05:00,33.6,27.5,28.91,North,0,0.0,0.0,78,0.00,,---,0.00,VWS V14.00,2013-02-15 10:05:00,
2013-02-15 05:11:00,33.6,27.5,28.88,North,0,0.0,0.0,78,0.00,,---,0.00,VWS V14.00,2013-02-15 10:11:00,
2013-02-15 05:17:00,33.6,27.5,28.88,North,0,0.0,0.0,78,0.00,,---,0.00,VWS V14.00,2013-02-15 10:17:00,
2013-02-15 05:23:00,33.4,27.3,28.88,North,0,0.0,0.0,78,0.00,,---,0.00,VWS V14.00,2013-02-15 10:23:00,
2013-02-15 05:29:00,33.4,27.3,28.88,North,0,0.0,0.0,78,0.00,,---,0.00,VWS V14.00,2013-02-15 10:29:00,
2013-02-15 05:35:00,33.4,27.6,28.88,North,0,0.0,0.0,79,0.00,,---,0.00,VWS V14.00,2013-02-15 10:35:00,
2013-02-15 05:41:00,33.4,27.6,28.88,North,0,0.0,0.0,79,0.00,,---,0.00,VWS V14.00,2013-02-15 10:41:00,
2013-02-15 05:47:00,33.3,27.5,28.88,North,0,0.0,0.0,79,0.00,,---,0.00,VWS V14.00,2013-02-15 10:47:00,
2013-02-15 05:53:00,33.3,27.5,28.88,North,0,0.0,0.0,79,0.00,,---,0.00,VWS V14.00,2013-02-15 10:53:00,
2013-02-15 05:59:00,33.3,27.5,28.91,North,0,0.0,0.0,79,0.00,,---,0.00,VWS V14.00,2013-02-15 10:59:00,
2013-02-15 06:05:00,33.1,27.3,28.91,North,0,0.0,0.0,79,0.00,,---,0.00,VWS V14.00,2013-02-15 11:05:00,
2013-02-15 06:11:00,33.3,27.5,28.91,North,0,0.0,0.0,79,0.00,,---,0.00,VWS V14.00,2013-02-15 11:11:00,
2013-02-15 06:17:00,33.1,27.3,28.91,North,0,0.0,0.0,79,0.00,,---,0.00,VWS V14.00,2013-02-15 11:17:00,
2013-02-15 06:23:00,33.1,27.3,28.91,North,0,0.0,0.0,79,0.00,,---,0.00,VWS V14.00,2013-02-15 11:23:00,
2013-02-15 06:29:00,32.9,27.1,28.91,North,0,0.0,0.0,79,0.00,,---,0.00,VWS V14.00,2013-02-15 11:29:00,
2013-02-15 06:35:00,32.9,27.1,28.91,North,0,0.0,0.0,79,0.00,,---,0.00,VWS V14.00,2013-02-15 11:35:00,
2013-02-15 06:41:00,33.1,27.3,28.91,North,0,0.0,0.0,79,0.00,,---,0.00,VWS V14.00,2013-02-15 11:41:00,
2013-02-15 06:47:00,32.9,27.1,28.91,North,0,0.0,0.0,79,0.00,,---,0.00,VWS V14.00,2013-02-15 11:47:00,
2013-02-15 06:53:00,32.7,26.9,28.91,North,0,0.0,0.0,79,0.00,,---,0.00,VWS V14.00,2013-02-15 11:53:00,
2013-02-15 06:59:00,32.9,27.1,28.94,North,0,0.0,0.0,79,0.00,,---,0.00,VWS V14.00,2013-02-15 11:59:00,
2013-02-15 07:05:00,32.9,27.1,28.94,North,0,0.0,0.0,79,0.00,,---,0.00,VWS V14.00,2013-02-15 12:05:00,
2013-02-15 07:11:00,32.9,27.1,28.91,North,0,0.0,0.0,79,0.00,,---,0.00,VWS V14.00,2013-02-15 12:11:00,
2013-02-15 07:17:00,32.9,27.1,28.91,North,0,0.0,0.0,79,0.00,,---,0.00,VWS V14.00,2013-02-15 12:17:00,
2013-02-15 07:23:00,32.9,27.1,28.91,North,0,0.0,0.0,79,0.00,,---,0.00,VWS V14.00,2013-02-15 12:23:00,
2013-02-15 07:29:00,32.7,26.9,28.94,North,0,0.0,0.0,79,0.00,,---,0.00,VWS V14.00,2013-02-15 12:29:00,
2013-02-15 07:35:00,32.7,26.9,28.94,North,0,0.0,0.0,79,0.00,,---,0.00,VWS V14.00,2013-02-15 12:35:00,
2013-02-15 07:41:00,32.7,26.9,28.91,North,0,0.0,0.0,79,0.00,,---,0.00,VWS V14.00,2013-02-15 12:41:00,
2013-02-15 07:47:00,32.7,26.9,28.91,North,0,0.0,0.0,79,0.00,,---,0.00,VWS V14.00,2013-02-15 12:47:00,
2013-02-15 07:53:00,32.7,26.9,28.91,North,0,0.0,0.0,79,0.00,,---,0.00,VWS V14.00,2013-02-15 12:53:00,
2013-02-15 07:59:00,32.9,27.4,28.94,North,0,0.0,0.0,80,0.00,,---,0.00,VWS V14.00,2013-02-15 12:59:00,
2013-02-15 08:05:00,33.1,27.6,28.94,North,0,0.0,0.0,80,0.00,,---,0.00,VWS V14.00,2013-02-15 13:05:00,
2013-02-15 08:11:00,33.4,27.9,28.91,North,0,0.0,0.0,80,0.00,,---,0.00,VWS V14.00,2013-02-15 13:11:00,
2013-02-15 08:17:00,34.0,28.5,28.91,North,0,0.0,0.0,80,0.00,,---,0.00,VWS V14.00,2013-02-15 13:17:00,
2013-02-15 08:23:00,34.7,29.2,28.91,North,0,0.0,0.0,80,0.00,,---,0.00,VWS V14.00,2013-02-15 13:23:00,
2013-02-15 08:29:00,35.2,30.0,28.91,WNW,292,0.0,0.9,81,0.00,,---,0.00,VWS V14.00,2013-02-15 13:29:00,
2013-02-15 08:35:00,35.8,30.2,28.91,West,270,1.3,1.6,80,0.00,,---,0.00,VWS V14.00,2013-02-15 13:35:00,
2013-02-15 08:41:00,36.1,30.6,28.94,West,270,0.0,1.6,80,0.00,,---,0.00,VWS V14.00,2013-02-15 13:41:00,
2013-02-15 08:48:00,37.0,31.8,28.94,South,180,2.0,2.0,81,0.00,,---,0.00,VWS V14.00,2013-02-15 13:48:00,
2013-02-15 08:54:00,37.9,32.6,28.94,South,180,0.0,2.0,81,0.00,,---,0.00,VWS V14.00,2013-02-15 13:54:00,
2013-02-15 09:00:00,38.8,33.8,28.94,South,180,0.0,2.0,82,0.00,,---,0.00,VWS V14.00,2013-02-15 14:00:00,
2013-02-15 09:06:00,40.1,35.1,28.94,South,180,0.0,0.0,82,0.00,,---,0.00,VWS V14.00,2013-02-15 14:06:00,
2013-02-15 09:12:00,41.0,35.9,28.94,South,180,0.0,0.0,82,0.00,,---,0.00,VWS V14.00,2013-02-15 14:12:00,
2013-02-15 09:18:00,42.4,36.7,28.94,South,180,0.0,0.0,80,0.00,,---,0.00,VWS V14.00,2013-02-15 14:18:00,
2013-02-15 09:24:00,44.2,38.5,28.94,South,180,0.0,0.0,80,0.00,,---,0.00,VWS V14.00,2013-02-15 14:24:00,
2013-02-15 09:30:00,45.1,38.7,28.91,South,180,0.0,0.0,78,0.00,,---,0.00,VWS V14.00,2013-02-15 14:30:00,
2013-02-15 09:36:00,46.4,39.3,28.91,South,180,0.0,0.0,76,0.00,,---,0.00,VWS V14.00,2013-02-15 14:36:00,
2013-02-15 09:42:00,47.5,40.3,28.91,SSW,202,0.0,1.3,76,0.00,,---,0.00,VWS V14.00,2013-02-15 14:42:00,
2013-02-15 09:48:00,48.7,40.8,28.91,South,180,1.6,3.4,74,0.00,,---,0.00,VWS V14.00,2013-02-15 14:48:00,
2013-02-15 09:54:00,49.8,41.5,28.91,SW,225,2.0,3.4,73,0.00,,---,0.00,VWS V14.00,2013-02-15 14:54:00,
2013-02-15 10:00:00,50.7,42.0,28.91,South,180,2.5,3.4,72,0.00,,---,0.00,VWS V14.00,2013-02-15 15:00:00,
2013-02-15 10:06:00,52.0,42.9,28.91,SE,135,2.7,2.7,71,0.00,,---,0.00,VWS V14.00,2013-02-15 15:06:00,
2013-02-15 10:12:00,52.9,43.8,28.91,ESE,112,2.5,3.1,71,0.00,,---,0.00,VWS V14.00,2013-02-15 15:12:00,
2013-02-15 10:18:00,53.8,43.9,28.91,West,270,1.1,4.3,69,0.00,,---,0.00,VWS V14.00,2013-02-15 15:18:00,
2013-02-15 10:24:00,54.7,44.7,28.91,SW,225,3.6,4.3,69,0.00,,---,0.00,VWS V14.00,2013-02-15 15:24:00,
2013-02-15 10:30:00,55.6,45.2,28.91,SW,225,2.0,4.3,68,0.00,,---,0.00,VWS V14.00,2013-02-15 15:30:00,
2013-02-15 10:36:00,56.3,44.7,28.91,ESE,112,2.0,4.3,65,0.00,,---,0.00,VWS V14.00,2013-02-15 15:36:00,
2013-02-15 10:42:00,56.8,45.2,28.91,SE,135,2.5,5.4,65,0.00,,---,0.00,VWS V14.00,2013-02-15 15:42:00,
2013-02-15 10:48:00,57.6,45.5,28.91,SSE,158,2.2,5.4,64,0.00,,---,0.00,VWS V14.00,2013-02-15 15:48:00,
2013-02-15 10:54:00,57.7,45.7,28.91,SW,225,1.6,5.4,64,0.00,,---,0.00,VWS V14.00,2013-02-15 15:54:00,
2013-02-15 11:00:00,59.0,46.4,28.91,ESE,112,2.0,5.4,63,0.00,,---,0.00,VWS V14.00,2013-02-15 16:00:00,
2013-02-15 11:06:00,60.4,47.4,28.91,SSE,158,3.1,3.8,62,0.00,,---,0.00,VWS V14.00,2013-02-15 16:06:00,
2013-02-15 11:12:00,61.2,47.6,28.91,WNW,292,4.7,4.7,61,0.00,,---,0.00,VWS V14.00,2013-02-15 16:12:00,
2013-02-15 11:18:00,61.5,48.0,28.91,ESE,112,2.9,7.2,61,0.00,,---,0.00,VWS V14.00,2013-02-15 16:18:00,
2013-02-15 11:24:00,61.5,47.5,28.91,SSE,158,2.5,7.2,60,0.00,,---,0.00,VWS V14.00,2013-02-15 16:24:00,
2013-02-15 11:30:00,61.7,47.7,28.91,NE,45,3.1,8.7,60,0.00,,---,0.00,VWS V14.00,2013-02-15 16:30:00,
2013-02-15 11:36:00,61.7,47.7,28.91,East,90,2.5,8.7,60,0.00,,---,0.00,VWS V14.00,2013-02-15 16:36:00,
2013-02-15 11:42:00,61.9,47.9,28.88,NW,315,1.6,8.7,60,0.00,,---,0.00,VWS V14.00,2013-02-15 16:42:00,
2013-02-15 11:48:00,62.2,48.2,28.88,NW,315,4.5,8.7,60,0.00,,---,0.00,VWS V14.00,2013-02-15 16:48:00,
2013-02-15 11:54:00,62.6,48.1,28.88,SSE,158,2.5,8.7,59,0.00,,---,0.00,VWS V14.00,2013-02-15 16:54:00,
2013-02-15 12:00:00,63.1,48.6,28.88,West,270,4.0,8.7,59,0.00,,---,0.00,VWS V14.00,2013-02-15 17:00:00,
2013-02-15 12:06:00,63.5,48.9,28.88,West,270,3.6,4.0,59,0.00,,---,0.00,VWS V14.00,2013-02-15 17:06:00,
2013-02-15 12:12:00,63.9,49.3,28.88,West,270,2.5,4.0,59,0.00,,---,0.00,VWS V14.00,2013-02-15 17:12:00,
2013-02-15 12:18:00,64.2,49.6,28.88,WSW,248,2.7,5.6,59,0.00,,---,0.00,VWS V14.00,2013-02-15 17:18:00,
2013-02-15 12:24:00,64.4,49.3,28.88,NE,45,2.5,5.6,58,0.00,,---,0.00,VWS V14.00,2013-02-15 17:24:00,
2013-02-15 12:30:00,64.4,49.3,28.88,ESE,112,2.0,5.6,58,0.00,,---,0.00,VWS V14.00,2013-02-15 17:30:00,
2013-02-15 12:36:00,64.8,49.7,28.88,SSE,158,7.4,7.4,58,0.00,,---,0.00,VWS V14.00,2013-02-15 17:36:00,
2013-02-15 12:46:00,65.1,50.0,28.85,SE,135,3.8,7.4,58,0.00,,---,0.00,VWS V14.00,2013-02-15 17:46:00,
2013-02-15 12:52:00,65.1,50.0,28.85,SSE,158,1.1,7.4,58,0.00,,---,0.00,VWS V14.00,2013-02-15 17:52:00,
2013-02-15 12:58:00,65.1,50.0,28.85,South,180,2.7,7.4,58,0.00,,---,0.00,VWS V14.00,2013-02-15 17:58:00,
2013-02-15 13:04:00,65.1,50.0,28.85,East,90,1.3,2.2,58,0.00,,---,0.00,VWS V14.00,2013-02-15 18:04:00,
2013-02-15 13:10:00,65.1,48.6,28.85,NNE,22,2.2,5.8,55,0.00,,---,0.00,VWS V14.00,2013-02-15 18:10:00,
2013-02-15 13:16:00,64.8,48.2,28.85,SSE,158,7.8,7.8,55,0.00,,---,0.00,VWS V14.00,2013-02-15 18:16:00,
2013-02-15 13:22:00,64.2,48.2,28.85,NW,315,4.0,7.8,56,0.00,,---,0.00,VWS V14.00,2013-02-15 18:22:00,
2013-02-15 13:28:00,64.4,47.9,28.85,SE,135,5.6,7.8,55,0.00,,---,0.00,VWS V14.00,2013-02-15 18:28:00,
2013-02-15 13:34:00,64.4,47.9,28.85,SSW,202,2.0,7.8,55,0.00,,---,0.00,VWS V14.00,2013-02-15 18:34:00,
2013-02-15 13:40:00,64.4,47.9,28.85,South,180,2.9,7.8,55,0.00,,---,0.00,VWS V14.00,2013-02-15 18:40:00,
2013-02-15 13:46:00,63.9,47.9,28.82,SSE,158,2.9,7.8,56,0.00,,---,0.00,VWS V14.00,2013-02-15 18:46:00,
2013-02-15 13:52:00,64.0,48.0,28.82,ENE,68,4.0,7.8,56,0.00,,---,0.00,VWS V14.00,2013-02-15 18:52:00,
2013-02-15 13:58:00,63.9,47.9,28.82,ESE,112,3.4,7.8,56,0.00,,---,0.00,VWS V14.00,2013-02-15 18:58:00,
2013-02-15 14:04:00,63.5,47.5,28.82,NW,315,0.0,4.0,56,0.00,,---,0.00,VWS V14.00,2013-02-15 19:04:00,
2013-02-15 14:10:00,63.5,47.5,28.82,WSW,248,0.0,4.0,56,0.00,,---,0.00,VWS V14.00,2013-02-15 19:10:00,
2013-02-15 14:16:00,63.5,47.5,28.82,South,180,2.0,4.0,56,0.00,,---,0.00,VWS V14.00,2013-02-15 19:16:00,
2013-02-15 14:22:00,63.3,47.4,28.82,WNW,292,2.7,4.7,56,0.00,,---,0.00,VWS V14.00,2013-02-15 19:22:00,
2013-02-15 14:28:00,63.1,47.2,28.79,NNW,338,1.6,4.7,56,0.00,,---,0.00,VWS V14.00,2013-02-15 19:28:00,
2013-02-15 14:34:00,62.8,46.9,28.79,SSW,202,2.2,4.7,56,0.00,,---,0.00,VWS V14.00,2013-02-15 19:34:00,
2013-02-15 14:40:00,62.6,46.7,28.79,SSW,202,0.9,4.7,56,0.00,,---,0.00,VWS V14.00,2013-02-15 19:40:00,
2013-02-15 14:46:00,62.4,46.5,28.79,WNW,292,1.1,4.7,56,0.00,,---,0.00,VWS V14.00,2013-02-15 19:46:00,
2013-02-15 14:52:00,62.4,46.5,28.79,SSE,158,1.6,4.7,56,0.00,,---,0.00,VWS V14.00,2013-02-15 19:52:00,
2013-02-15 14:58:00,62.4,46.5,28.79,SE,135,1.6,6.5,56,0.00,,---,0.00,VWS V14.00,2013-02-15 19:58:00,
2013-02-15 15:04:00,62.6,46.7,28.79,WSW,248,1.1,3.4,56,0.00,,---,0.00,VWS V14.00,2013-02-15 20:04:00,
2013-02-15 15:10:00,62.6,45.2,28.79,West,270,1.3,3.8,53,0.00,,---,0.00,VWS V14.00,2013-02-15 20:10:00,
2013-02-15 15:16:00,62.8,45.4,28.79,SW,225,2.9,3.8,53,0.00,,---,0.00,VWS V14.00,2013-02-15 20:16:00,
2013-02-15 15:22:00,63.0,45.6,28.79,SW,225,5.6,5.6,53,0.00,,---,0.00,VWS V14.00,2013-02-15 20:22:00,
2013-02-15 15:28:00,63.0,45.6,28.79,South,180,3.4,5.6,53,0.00,,---,0.00,VWS V14.00,2013-02-15 20:28:00,
2013-02-15 15:34:00,62.8,45.4,28.79,WSW,248,0.0,5.6,53,0.00,,---,0.00,VWS V14.00,2013-02-15 20:34:00,
2013-02-15 15:40:00,62.8,45.4,28.76,ENE,68,3.8,5.6,53,0.00,,---,0.00,VWS V14.00,2013-02-15 20:40:00,
2013-02-15 15:46:00,62.6,45.2,28.76,SE,135,1.6,5.6,53,0.00,,---,0.00,VWS V14.00,2013-02-15 20:46:00,
2013-02-15 15:52:00,62.6,45.2,28.76,WNW,292,3.8,5.6,53,0.00,,---,0.00,VWS V14.00,2013-02-15 20:52:00,
2013-02-15 15:58:00,62.6,45.2,28.79,WNW,292,0.9,5.6,53,0.00,,---,0.00,VWS V14.00,2013-02-15 20:58:00,
2013-02-15 16:04:00,62.4,45.6,28.79,West,270,2.0,4.3,54,0.00,,---,0.00,VWS V14.00,2013-02-15 21:04:00,
2013-02-15 16:10:00,62.4,45.6,28.79,West,270,0.0,4.3,54,0.00,,---,0.00,VWS V14.00,2013-02-15 21:10:00,
2013-02-15 16:16:00,62.2,46.4,28.79,West,270,0.0,4.3,56,0.00,,---,0.00,VWS V14.00,2013-02-15 21:16:00,
2013-02-15 16:22:00,62.1,46.2,28.79,West,270,0.0,4.3,56,0.00,,---,0.00,VWS V14.00,2013-02-15 21:22:00,
2013-02-15 16:28:00,61.9,45.1,28.79,West,270,1.1,4.3,54,0.00,,---,0.00,VWS V14.00,2013-02-15 21:28:00,
2013-02-15 16:34:00,62.1,45.2,28.79,NNW,338,1.3,4.3,54,0.00,,---,0.00,VWS V14.00,2013-02-15 21:34:00,
2013-02-15 16:40:00,62.1,45.2,28.79,WSW,248,0.0,4.3,54,0.00,,---,0.00,VWS V14.00,2013-02-15 21:40:00,
2013-02-15 16:46:00,61.9,45.1,28.79,SW,225,1.3,4.3,54,0.00,,---,0.00,VWS V14.00,2013-02-15 21:46:00,
2013-02-15 16:52:00,61.7,44.9,28.79,NW,315,2.0,6.5,54,0.00,,---,0.00,VWS V14.00,2013-02-15 21:52:00,
2013-02-15 16:58:00,61.5,44.7,28.76,SW,225,0.0,6.5,54,0.00,,---,0.00,VWS V14.00,2013-02-15 21:58:00,
2013-02-15 17:04:00,61.3,44.6,28.76,NNE,22,0.9,4.0,54,0.00,,---,0.00,VWS V14.00,2013-02-15 22:04:00,
2013-02-15 17:10:00,61.0,44.2,28.76,West,270,0.0,4.0,54,0.00,,---,0.00,VWS V14.00,2013-02-15 22:10:00,
2013-02-15 17:16:00,60.6,43.9,28.76,WNW,292,1.3,4.0,54,0.00,,---,0.00,VWS V14.00,2013-02-15 22:16:00,
2013-02-15 17:22:00,60.4,45.2,28.76,West,270,0.9,4.0,57,0.00,,---,0.00,VWS V14.00,2013-02-15 22:22:00,
2013-02-15 17:29:00,60.1,44.8,28.76,WNW,292,0.9,4.0,57,0.00,,---,0.00,VWS V14.00,2013-02-15 22:29:00,
2013-02-15 17:35:00,60.1,44.8,28.76,West,270,0.0,4.0,57,0.00,,---,0.00,VWS V14.00,2013-02-15 22:35:00,
2013-02-15 17:41:00,59.9,43.2,28.76,WSW,248,2.5,4.0,54,0.00,,---,0.00,VWS V14.00,2013-02-15 22:41:00,
2013-02-15 17:47:00,59.9,43.2,28.76,WNW,292,1.6,4.0,54,0.00,,---,0.00,VWS V14.00,2013-02-15 22:47:00,
2013-02-15 17:53:00,59.7,43.1,28.76,WNW,292,2.5,4.0,54,0.00,,---,0.00,VWS V14.00,2013-02-15 22:53:00,
2013-02-15 17:59:00,59.5,42.9,28.79,West,270,2.0,4.0,54,0.00,,---,0.00,VWS V14.00,2013-02-15 22:59:00,
2013-02-15 18:05:00,59.4,42.7,28.79,West,270,1.3,1.6,54,0.00,,---,0.00,VWS V14.00,2013-02-15 23:05:00,
2013-02-15 18:11:00,59.2,42.6,28.79,NW,315,0.0,2.9,54,0.00,,---,0.00,VWS V14.00,2013-02-15 23:11:00,
2013-02-15 18:17:00,58.8,42.2,28.79,South,180,3.6,3.6,54,0.00,,---,0.00,VWS V14.00,2013-02-15 23:17:00,
2013-02-15 18:23:00,58.6,42.1,28.79,West,270,1.3,4.0,54,0.00,,---,0.00,VWS V14.00,2013-02-15 23:23:00,
2013-02-15 18:29:00,58.5,41.9,28.79,West,270,1.3,4.0,54,0.00,,---,0.00,VWS V14.00,2013-02-15 23:29:00,
2013-02-15 18:35:00,58.1,41.6,28.79,WNW,292,0.0,4.0,54,0.00,,---,0.00,VWS V14.00,2013-02-15 23:35:00,
2013-02-15 18:41:00,57.9,41.4,28.79,West,270,2.5,4.0,54,0.00,,---,0.00,VWS V14.00,2013-02-15 23:41:00,
2013-02-15 18:47:00,57.7,41.2,28.79,NW,315,3.4,4.0,54,0.00,,---,0.00,VWS V14.00,2013-02-15 23:47:00,
2013-02-15 18:53:00,57.4,42.3,28.79,WSW,248,1.3,4.0,57,0.00,,---,0.00,VWS V14.00,2013-02-15 23:53:00,
2013-02-15 18:59:00,57.2,42.1,28.79,West,270,0.9,4.0,57,0.00,,---,0.00,VWS V14.00,2013-02-15 23:59:00,
2013-02-15 19:05:00,56.8,41.8,28.79,West,270,0.0,0.0,57,0.00,,---,0.00,VWS V14.00,2013-02-16 00:05:00,
2013-02-15 19:11:00,56.7,41.6,28.79,WNW,292,0.0,0.0,57,0.00,,---,0.00,VWS V14.00,2013-02-16 00:11:00,
2013-02-15 19:17:00,56.3,41.3,28.79,WNW,292,0.0,1.1,57,0.00,,---,0.00,VWS V14.00,2013-02-16 00:17:00,
2013-02-15 19:23:00,55.9,40.9,28.79,NE,45,0.0,1.1,57,0.00,,---,0.00,VWS V14.00,2013-02-16 00:23:00,
2013-02-15 19:29:00,55.6,40.6,28.79,NNE,22,0.0,1.1,57,0.00,,---,0.00,VWS V14.00,2013-02-16 00:29:00,
2013-02-15 19:35:00,55.0,40.5,28.79,NNE,22,0.0,1.1,58,0.00,,---,0.00,VWS V14.00,2013-02-16 00:35:00,
2013-02-15 19:41:00,54.9,40.4,28.79,NE,45,0.0,1.1,58,0.00,,---,0.00,VWS V14.00,2013-02-16 00:41:00,
2013-02-15 19:47:00,54.9,40.4,28.79,North,0,0.0,1.6,58,0.00,,---,0.00,VWS V14.00,2013-02-16 00:47:00,
2013-02-15 19:53:00,54.5,40.9,28.79,NE,45,0.0,1.6,60,0.00,,---,0.00,VWS V14.00,2013-02-16 00:53:00,
2013-02-15 19:59:00,54.7,41.1,28.82,WSW,248,0.9,3.4,60,0.00,,---,0.00,VWS V14.00,2013-02-16 00:59:00,
2013-02-15 20:05:00,54.7,41.1,28.82,SE,135,3.4,4.9,60,0.00,,---,0.00,VWS V14.00,2013-02-16 01:05:00,
2013-02-15 20:11:00,54.7,41.5,28.82,East,90,1.3,5.4,61,0.00,,---,0.00,VWS V14.00,2013-02-16 01:11:00,
2013-02-15 20:17:00,54.5,41.3,28.82,WNW,292,1.6,5.4,61,0.00,,---,0.00,VWS V14.00,2013-02-16 01:17:00,
2013-02-15 20:23:00,54.5,41.3,28.82,NNW,338,0.0,5.4,61,0.00,,---,0.00,VWS V14.00,2013-02-16 01:23:00,
2013-02-15 20:29:00,54.3,41.2,28.82,WNW,292,0.0,5.4,61,0.00,,---,0.00,VWS V14.00,2013-02-16 01:29:00,
2013-02-15 20:35:00,54.1,41.0,28.82,WNW,292,0.0,5.4,61,0.00,,---,0.00,VWS V14.00,2013-02-16 01:35:00,
2013-02-15 20:41:00,53.8,40.7,28.82,WNW,292,0.0,5.4,61,0.00,,---,0.00,VWS V14.00,2013-02-16 01:41:00,
2013-02-15 20:47:00,53.4,40.7,28.82,WNW,292,0.0,5.4,62,0.00,,---,0.00,VWS V14.00,2013-02-16 01:47:00,
2013-02-15 20:53:00,53.4,40.7,28.82,WNW,292,1.1,5.4,62,0.00,,---,0.00,VWS V14.00,2013-02-16 01:53:00,
2013-02-15 20:59:00,53.1,40.4,28.82,WNW,292,0.0,5.4,62,0.00,,---,0.00,VWS V14.00,2013-02-16 01:59:00,
2013-02-15 21:05:00,52.9,40.2,28.82,NW,315,0.0,1.6,62,0.00,,---,0.00,VWS V14.00,2013-02-16 02:05:00,
2013-02-15 21:11:00,52.5,39.9,28.82,WNW,292,0.0,2.0,62,0.00,,---,0.00,VWS V14.00,2013-02-16 02:11:00,
2013-02-15 21:17:00,52.3,39.7,28.82,NW,315,0.0,2.0,62,0.00,,---,0.00,VWS V14.00,2013-02-16 02:17:00,
2013-02-15 21:23:00,52.2,39.5,28.82,WNW,292,2.5,2.5,62,0.00,,---,0.00,VWS V14.00,2013-02-16 02:23:00,
2013-02-15 21:29:00,51.8,39.2,28.82,ENE,68,1.6,2.5,62,0.00,,---,0.00,VWS V14.00,2013-02-16 02:29:00,
2013-02-15 21:35:00,51.4,38.9,28.82,NE,45,0.9,2.5,62,0.00,,---,0.00,VWS V14.00,2013-02-16 02:35:00,
2013-02-15 21:41:00,51.1,38.5,28.85,West,270,1.6,5.8,62,0.00,,---,0.00,VWS V14.00,2013-02-16 02:41:00,
2013-02-15 21:47:00,50.7,38.2,28.85,NE,45,2.5,5.8,62,0.00,,---,0.00,VWS V14.00,2013-02-16 02:47:00,
2013-02-15 21:53:00,50.5,38.0,28.85,NW,315,6.0,6.0,62,0.00,,---,0.00,VWS V14.00,2013-02-16 02:53:00,
2013-02-15 21:59:00,50.4,37.8,28.85,NNW,338,1.6,6.0,62,0.00,,---,0.00,VWS V14.00,2013-02-16 02:59:00,
2013-02-15 22:05:00,50.2,37.7,28.85,NNW,338,1.6,6.5,62,0.00,,---,0.00,VWS V14.00,2013-02-16 03:05:00,
2013-02-15 22:11:00,50.0,37.5,28.82,WNW,292,2.7,6.5,62,0.00,,---,0.00,VWS V14.00,2013-02-16 03:11:00,
2013-02-15 22:17:00,49.8,37.3,28.82,WNW,292,2.0,6.5,62,0.00,,---,0.00,VWS V14.00,2013-02-16 03:17:00,
2013-02-15 22:23:00,49.6,37.2,28.82,West,270,1.6,6.5,62,0.00,,---,0.00,VWS V14.00,2013-02-16 03:23:00,
2013-02-15 22:29:00,49.3,36.8,28.82,WSW,248,0.0,6.5,62,0.00,,---,0.00,VWS V14.00,2013-02-16 03:29:00,
2013-02-15 22:35:00,49.1,36.7,28.82,West,270,0.0,6.5,62,0.00,,---,0.00,VWS V14.00,2013-02-16 03:35:00,
2013-02-15 22:41:00,48.9,36.5,28.82,WSW,248,0.0,6.5,62,0.00,,---,0.00,VWS V14.00,2013-02-16 03:41:00,
2013-02-15 22:47:00,48.6,36.2,28.82,WSW,248,2.0,6.5,62,0.00,,---,0.00,VWS V14.00,2013-02-16 03:47:00,
2013-02-15 22:53:00,48.2,35.8,28.82,West,270,0.0,6.5,62,0.00,,---,0.00,VWS V14.00,2013-02-16 03:53:00,
2013-02-15 22:59:00,47.8,35.9,28.82,West,270,1.1,6.5,63,0.00,,---,0.00,VWS V14.00,2013-02-16 03:59:00,
2013-02-15 23:06:00,47.7,35.7,28.82,West,270,0.0,1.6,63,0.00,,---,0.00,VWS V14.00,2013-02-16 04:06:00,
2013-02-15 23:12:00,47.3,35.4,28.82,NNW,338,0.9,1.6,63,0.00,,---,0.00,VWS V14.00,2013-02-16 04:12:00,
2013-02-15 23:18:00,47.1,35.6,28.82,NW,315,0.0,1.6,64,0.00,,---,0.00,VWS V14.00,2013-02-16 04:18:00,
2013-02-15 23:24:00,46.6,35.1,28.82,WNW,292,1.1,1.6,64,0.00,,---,0.00,VWS V14.00,2013-02-16 04:24:00,
2013-02-15 23:30:00,46.8,35.2,28.82,WNW,292,0.0,1.6,64,0.00,,---,0.00,VWS V14.00,2013-02-16 04:30:00,
2013-02-15 23:36:00,46.4,34.9,28.82,NNW,338,0.0,1.6,64,0.00,,---,0.00,VWS V14.00,2013-02-16 04:36:00,
2013-02-15 23:42:00,46.0,35.0,28.82,NNE,22,0.0,1.6,65,0.00,,---,0.00,VWS V14.00,2013-02-16 04:42:00,
2013-02-15 23:48:00,45.7,34.6,28.82,NE,45,0.0,1.6,65,0.00,,---,0.00,VWS V14.00,2013-02-16 04:48:00,
2013-02-15 23:54:00,45.7,34.6,28.82,NE,45,0.0,1.6,65,0.00,,---,0.00,VWS V14.00,2013-02-16 04:54:00,